CZ-4B DEB, 46472

Orbit data source: Space-Track

CZ-4B DEB, 46472 is space debris in LEO originally from a launch on Mon, 21 Sep 2020 UTC launched from the Jiuquan Satellite Launch Center, China (JSC). Debris objects in space refer to the collection of defunct objects orbiting the Earth. Examples of debris include non-operational satellites, rocket bodies, and fragments generated from explosions, collisions, or faulty payload assembly.

Loading next visibility...
Identifier
46472, 2020-066D
Orbit
LEO
Country
Flag of CNCN / PRC
Related business
Manufacturer
SAST
Mission
Spacecraft
Bus & Motor
Unknown
Mass
Unknown
Launch date (UTC)
2020-09-21 (6 years ago)
Launch vehicle
Unknown
Launch site
Jiuquan Satellite Launch Center, China (JSC)
Object type
Payload
Rocket body
Debris
Shape & HBR
Unknown shape, 0.1 m
Radar Cross Section
Medium (>0.1 m² and <1 m²)

Expand to show TLE details & history
Last TLE update: 2 days ago

TLE from 2 days ago
0 CZ-4B DEB
1 46472U 20066D   26170.96593174  .00000054  00000-0  10643-3 0  9993
2 46472  65.9117 116.6104 0029391 352.2197   7.8415 13.92352246291932
Epoch: 2026-06-19T23:10Z
TLE epoch observation values (Epoch: 2026-06-19T23:10:56.502Z)
Latitude
-0.00003°
Longitude
-139.31237°
Altitude
901.156 km
Speed
7.413 km/s
True Right ascension
07h 46m 26s
True Declination
0° 00' 00"
Sunlit
Object was in daylight at epoch
Visualization orbit readout
Latitude
Unknown
Longitude
Unknown
Altitude
Unknown
Speed
Unknown
Apparent Right ascension
Unknown
Apparent Declination
Unknown
Sunlit
N/A
Visualization observer readout
Local Sidereal Time
21:24:42
Azimuth
Unknown
Elevation
Unknown
Doppler factor
Unknown
Orbital elements
Apogee altitude
940.341 km
Perigee altitude
897.448 km
Semi-major axis
7,297.031 km
Eccentricity
0.00294
Inclination
65.9117°
RAAN
116.6104°
Arg. of periapsis
352.2197°
True anomaly
7.88762°
Mean anomaly
7.8415°
Eccentric anomaly
7.86454°
Mean motion
3.48196 °/min
Orbital period
103.39 mins
BSTAR
0.00010643
Loading maneuver chart data...
Computing Atmospheric mass density...
Loading historical data...
Loading historical data...
Loading historical data...
Loading historical data...
Loading historical data...
Loading historical data...
Loading historical data...
Other satellites on launch #66 in the year 2020 (2020-09-21 UTC)

Documentation

Showing up to 5 results
|